• In Portugal
  • List of Countries
  • For 7 days
  • Water Temperature
  • Satellite Maps
  • Weather Map
  • Weather Widgets
  • user-avatar
    Login

    Hourly Weather Nadżaf

    Today, 26 September, Tuesday

    Time Temperature Precipitation Wind Pressure Humidity
    00:00 +35°C° 0 mm 2 mps 747 mmHg 15%
    01:00 +34°C° 0 mm 2 mps 747 mmHg 16%
    02:00 +34°C° 0 mm 2 mps 747 mmHg 16%
    03:00 +32°C° 0 mm 1 mps 747 mmHg 17%
    04:00 +31°C° 0 mm 1 mps 747 mmHg 17%
    05:00 +31°C° 0 mm 1 mps 747 mmHg 17%
    06:00 +31°C° 0 mm 1 mps 747 mmHg 18%
    07:00 +33°C° 0 mm 1 mps 747 mmHg 16%
    08:00 +36°C° 0 mm 1 mps 748 mmHg 14%
    09:00 +39°C° 0 mm 1 mps 748 mmHg 11%
    10:00 +40°C° 0 mm 1 mps 748 mmHg 11%
    11:00 +42°C° 0 mm 1 mps 748 mmHg 10%
    12:00 +43°C° 0 mm 2 mps 748 mmHg 9%
    13:00 +43°C° 0 mm 2 mps 747 mmHg 9%
    14:00 +45°C° 0 mm 2 mps 747 mmHg 8%
    15:00 +45°C° 0 mm 2 mps 746 mmHg 8%
    16:00 +43°C° 0 mm 2 mps 746 mmHg 9%
    17:00 +41°C° 0 mm 1 mps 746 mmHg 10%
    18:00 +39°C° 0 mm 1 mps 746 mmHg 11%
    19:00 +39°C° 0 mm 1 mps 746 mmHg 11%
    20:00 +37°C° 0 mm 1 mps 746 mmHg 11%
    21:00 +38°C° 0 mm 2 mps 746 mmHg 12%
    22:00 +38°C° 0 mm 2 mps 746 mmHg 12%
    23:00 +38°C° 0 mm 3 mps 746 mmHg 12%

    Tomorrow, 27 September, Wednesday

    Time Temperature Precipitation Wind Pressure Humidity
    00:00 +37°C° 0 mm 4 mps 746 mmHg 12%
    01:00 +37°C° 0 mm 3 mps 746 mmHg 13%
    02:00 +36°C° 0 mm 3 mps 746 mmHg 13%
    03:00 +35°C° 0 mm 3 mps 746 mmHg 14%
    04:00 +35°C° 0 mm 3 mps 747 mmHg 14%
    05:00 +34°C° 0 mm 3 mps 747 mmHg 14%
    06:00 +33°C° 0 mm 3 mps 747 mmHg 14%
    07:00 +35°C° 0 mm 3 mps 748 mmHg 13%
    08:00 +38°C° 0 mm 4 mps 748 mmHg 11%
    09:00 +41°C° 0 mm 5 mps 748 mmHg 10%
    10:00 +42°C° 0 mm 5 mps 748 mmHg 9%
    11:00 +43°C° 0 mm 5 mps 748 mmHg 9%
    12:00 +46°C° 0 mm 5 mps 748 mmHg 9%
    13:00 +46°C° 0 mm 5 mps 748 mmHg 9%
    14:00 +46°C° 0 mm 5 mps 747 mmHg 9%
    15:00 +46°C° 0 mm 5 mps 747 mmHg 9%
    16:00 +45°C° 0 mm 5 mps 747 mmHg 11%
    17:00 +42°C° 0 mm 5 mps 747 mmHg 14%
    18:00 +41°C° 0 mm 5 mps 746 mmHg 16%
    19:00 +39°C° 0 mm 5 mps 747 mmHg 18%
    20:00 +37°C° 0 mm 5 mps 747 mmHg 19%
    21:00 +36°C° 0 mm 5 mps 747 mmHg 21%
    22:00 +36°C° 0 mm 5 mps 747 mmHg 22%
    23:00 +35°C° 0 mm 5 mps 748 mmHg 23%

    Day after tomorrow, 28 September, Thursday

    Time Temperature Precipitation Wind Pressure Humidity
    00:00 +34°C° 0 mm 5 mps 748 mmHg 23%
    01:00 +34°C° 0 mm 4 mps 748 mmHg 25%
    02:00 +33°C° 0 mm 4 mps 748 mmHg 26%
    03:00 +31°C° 0 mm 3 mps 748 mmHg 28%
    04:00 +31°C° 0 mm 3 mps 748 mmHg 29%
    05:00 +30°C° 0 mm 3 mps 748 mmHg 30%
    06:00 +30°C° 0 mm 3 mps 748 mmHg 31%
    07:00 +33°C° 0 mm 4 mps 749 mmHg 27%
    08:00 +34°C° 0 mm 4 mps 749 mmHg 23%
    09:00 +36°C° 0 mm 5 mps 750 mmHg 20%
    10:00 +39°C° 0 mm 5 mps 749 mmHg 18%
    11:00 +40°C° 0 mm 4 mps 749 mmHg 16%
    12:00 +41°C° 0 mm 4 mps 749 mmHg 13%
    13:00 +42°C° 0 mm 4 mps 748 mmHg 13%
    14:00 +42°C° 0 mm 4 mps 748 mmHg 13%
    15:00 +43°C° 0 mm 3 mps 747 mmHg 12%
    16:00 +42°C° 0 mm 3 mps 747 mmHg 13%
    17:00 +40°C° 0 mm 3 mps 747 mmHg 14%
    18:00 +38°C° 0 mm 3 mps 747 mmHg 15%
    19:00 +37°C° 0 mm 4 mps 747 mmHg 16%
    20:00 +36°C° 0 mm 4 mps 748 mmHg 18%
    21:00 +35°C° 0 mm 5 mps 748 mmHg 19%
    22:00 +35°C° 0 mm 4 mps 748 mmHg 19%
    23:00 +34°C° 0 mm 4 mps 748 mmHg 19%

    29 September, Friday

    Time Temperature Precipitation Wind Pressure Humidity
    00:00 +33°C° 0 mm 4 mps 748 mmHg 19%
    01:00 +33°C° 0 mm 4 mps 748 mmHg 20%
    02:00 +31°C° 0 mm 3 mps 747 mmHg 20%
    03:00 +31°C° 0 mm 3 mps 747 mmHg 20%
    04:00 +30°C° 0 mm 3 mps 747 mmHg 20%
    05:00 +30°C° 0 mm 3 mps 747 mmHg 20%
    06:00 +29°C° 0 mm 2 mps 747 mmHg 21%
    07:00 +31°C° 0 mm 2 mps 748 mmHg 18%
    08:00 +34°C° 0 mm 2 mps 748 mmHg 16%
    09:00 +36°C° 0 mm 2 mps 748 mmHg 14%
    10:00 +38°C° 0 mm 2 mps 748 mmHg 13%
    11:00 +39°C° 0 mm 3 mps 747 mmHg 12%
    12:00 +42°C° 0 mm 3 mps 747 mmHg 11%
    13:00 +43°C° 0 mm 3 mps 746 mmHg 10%
    14:00 +43°C° 0 mm 3 mps 746 mmHg 9%
    15:00 +44°C° 0 mm 4 mps 745 mmHg 9%
    16:00 +43°C° 0 mm 4 mps 745 mmHg 9%
    17:00 +42°C° 0 mm 4 mps 745 mmHg 10%
    18:00 +41°C° 0 mm 4 mps 744 mmHg 10%
    19:00 +40°C° 0 mm 4 mps 745 mmHg 11%
    20:00 +38°C° 0 mm 4 mps 745 mmHg 11%
    21:00 +38°C° 0 mm 4 mps 745 mmHg 12%
    22:00 +37°C° 0 mm 4 mps 745 mmHg 12%
    23:00 +36°C° 0 mm 4 mps 745 mmHg 13%

    30 September, Saturday

    Time Temperature Precipitation Wind Pressure Humidity
    00:00 +36°C° 0 mm 4 mps 745 mmHg 13%
    01:00 +35°C° 0 mm 4 mps 744 mmHg 13%
    02:00 +35°C° 0 mm 4 mps 744 mmHg 13%
    03:00 +34°C° 0 mm 4 mps 744 mmHg 13%
    04:00 +34°C° 0 mm 4 mps 744 mmHg 13%
    05:00 +34°C° 0 mm 5 mps 745 mmHg 13%
    06:00 +33°C° 0 mm 5 mps 745 mmHg 13%
    07:00 +36°C° 0 mm 6 mps 745 mmHg 11%
    08:00 +39°C° 0 mm 8 mps 746 mmHg 9%
    09:00 +42°C° 0 mm 9 mps 746 mmHg 8%
    10:00 +44°C° 0 mm 9 mps 746 mmHg 7%
    11:00 +45°C° 0 mm 9 mps 746 mmHg 7%
    12:00 +47°C° 0 mm 9 mps 746 mmHg 6%
    13:00 +46°C° 0 mm 8 mps 745 mmHg 7%
    14:00 +46°C° 0 mm 7 mps 745 mmHg 8%
    15:00 +45°C° 0 mm 6 mps 745 mmHg 9%
    16:00 +44°C° 0 mm 6 mps 745 mmHg 11%
    17:00 +41°C° 0 mm 5 mps 745 mmHg 13%
    18:00 +40°C° 0 mm 4 mps 745 mmHg 16%
    19:00 +38°C° 0 mm 4 mps 746 mmHg 17%
    20:00 +37°C° 0 mm 4 mps 746 mmHg 19%
    21:00 +36°C° 0 mm 4 mps 747 mmHg 21%
    22:00 +35°C° 0 mm 4 mps 747 mmHg 22%
    23:00 +34°C° 0 mm 4 mps 747 mmHg 24%

    1 October, Sunday

    Time Temperature Precipitation Wind Pressure Humidity
    00:00 +33°C° 0 mm 5 mps 748 mmHg 26%
    01:00 +33°C° 0 mm 5 mps 748 mmHg 27%
    02:00 +32°C° 0 mm 5 mps 748 mmHg 29%
    03:00 +30°C° 0 mm 5 mps 748 mmHg 31%
    04:00 +30°C° 0 mm 4 mps 749 mmHg 33%
    05:00 +29°C° 0 mm 4 mps 749 mmHg 34%
    06:00 +29°C° 0 mm 4 mps 749 mmHg 36%
    07:00 +30°C° 0 mm 4 mps 750 mmHg 32%
    08:00 +33°C° 0 mm 5 mps 750 mmHg 27%
    09:00 +35°C° 0 mm 5 mps 751 mmHg 23%
    10:00 +36°C° 0 mm 5 mps 750 mmHg 20%
    11:00 +37°C° 0 mm 5 mps 750 mmHg 18%
    12:00 +40°C° 0 mm 5 mps 750 mmHg 15%
    13:00 +40°C° 0 mm 5 mps 749 mmHg 14%
    14:00 +40°C° 0 mm 5 mps 749 mmHg 14%
    15:00 +41°C° 0 mm 5 mps 748 mmHg 13%
    16:00 +40°C° 0 mm 5 mps 748 mmHg 14%
    17:00 +38°C° 0 mm 4 mps 748 mmHg 15%
    18:00 +36°C° 0 mm 4 mps 748 mmHg 17%
    19:00 +36°C° 0 mm 4 mps 749 mmHg 18%
    20:00 +35°C° 0 mm 5 mps 749 mmHg 19%
    21:00 +34°C° 0 mm 5 mps 749 mmHg 21%
    22:00 +33°C° 0 mm 5 mps 749 mmHg 22%
    23:00 +32°C° 0 mm 5 mps 749 mmHg 23%
    Show more